| time (UTC) | temp C | wind direction | speed KPH | gust KPH | rain 1hr cm | rain 24hr cm | rain mn cm | humidity % | barometer mb |
| 20260505153143 | 8 | 202 | 12.9 | 22.5 | 0.00 | 0.00 | 0.00 | 39 | 1011.9 |
| 20260505152642 | 7 | 213 | 12.9 | 22.5 | 0.00 | 0.00 | 0.00 | 41 | 1012.2 |
| 20260505152143 | 7 | 188 | 9.7 | 22.5 | 0.00 | 0.00 | 0.00 | 40 | 1012.3 |
| 20260505151644 | 7 | 202 | 9.7 | 16.1 | 0.00 | 0.00 | 0.00 | 40 | 1012.3 |
| 20260505151138 | 7 | 194 | 11.3 | 16.1 | 0.00 | 0.00 | 0.00 | 41 | 1012.3 |
| 20260505150910 | 7 | 207 | 11.3 | 22.5 | 0.00 | 0.00 | 0.00 | 42 | 1012.3 |
| 20260505150138 | 7 | 198 | 11.3 | 22.5 | 0.00 | 0.00 | 0.00 | 43 | 1012.3 |
| 20260505140633 | 4 | 170 | 4.8 | 14.5 | 0.00 | 0.00 | 0.00 | 56 | 1013.6 |
| 20260505140133 | 3 | 201 | 3.2 | 9.7 | 0.00 | 0.00 | 0.00 | 58 | 1013.6 |
| 20260505130118 | 1 | 283 | 3.2 | 6.4 | 0.00 | 0.00 | 0.00 | 58 | 1014.0 |
| 20260505124614 | 1 | 279 | 1.6 | 4.8 | 0.00 | 0.00 | 0.00 | 62 | 1013.9 |
| 20260505124345 | 2 | 258 | 3.2 | 9.7 | 0.00 | 0.00 | 0.00 | 60 | 1013.9 |
| 20260505123614 | 1 | 175 | 4.8 | 9.7 | 0.00 | 0.00 | 0.00 | 59 | 1013.9 |
| 20260505123114 | 1 | 240 | 4.8 | 9.7 | 0.00 | 0.00 | 0.00 | 59 | 1013.9 |
| 20260505122615 | 1 | 219 | 4.8 | 9.7 | 0.00 | 0.00 | 0.00 | 60 | 1013.9 |
| 20260505122345 | 1 | 261 | 3.2 | 6.4 | 0.00 | 0.00 | 0.00 | 62 | 1013.9 |
| 20260505121609 | 1 | 259 | 3.2 | 6.4 | 0.00 | 0.00 | 0.00 | 61 | 1013.9 |
| 20260505121110 | 1 | 260 | 3.2 | 6.4 | 0.00 | 0.00 | 0.00 | 61 | 1013.8 |
| 20260505120607 | 1 | 187 | 3.2 | 6.4 | 0.00 | 0.00 | 0.00 | 62 | 1013.8 |
| 20260505120108 | 1 | 190 | 1.6 | 4.8 | 0.00 | 0.00 | 0.00 | 62 | 1013.8 |
| 20260505115605 | 1 | 207 | 1.6 | 4.8 | 0.00 | 0.00 | 0.00 | 62 | 1013.6 |
| 20260505115104 | 1 | 263 | 1.6 | 3.2 | 0.00 | 0.00 | 0.00 | 61 | 1013.8 |
| 20260505114603 | 1 | 263 | 1.6 | 3.2 | 0.00 | 0.00 | 0.00 | 60 | 1013.6 |
| 20260505114101 | 1 | 263 | 3.2 | 4.8 | 0.00 | 0.00 | 0.00 | 60 | 1013.5 |
| 20260505113558 | 1 | 263 | 3.2 | 6.4 | 0.00 | 0.00 | 0.00 | 61 | 1013.5 |
| 20260505113059 | 1 | 263 | 3.2 | 6.4 | 0.00 | 0.00 | 0.00 | 61 | 1013.5 |
| 20260505112830 | 1 | 221 | 3.2 | 4.8 | 0.00 | 0.00 | 0.00 | 59 | 1013.4 |
| 20260505112059 | 1 | 192 | 3.2 | 4.8 | 0.00 | 0.00 | 0.00 | 60 | 1013.4 |
| 20260505111553 | 1 | 209 | 3.2 | 8.0 | 0.00 | 0.00 | 0.00 | 60 | 1013.4 |
| 20260505111055 | 1 | 198 | 3.2 | 8.0 | 0.00 | 0.00 | 0.00 | 58 | 1013.5 |
| 20260505110555 | 1 | 217 | 1.6 | 6.4 | 0.00 | 0.00 | 0.00 | 57 | 1013.5 |
| 20260505102037 | 1 | 248 | 3.2 | 6.4 | 0.00 | 0.00 | 0.00 | 58 | 1013.6 |
| 20260505101536 | 2 | 252 | 1.6 | 6.4 | 0.00 | 0.00 | 0.00 | 56 | 1013.5 |
| 20260505101036 | 2 | 238 | 1.6 | 3.2 | 0.00 | 0.03 | 0.00 | 57 | 1013.4 |
| 20260505100537 | 2 | 238 | 1.6 | 4.8 | 0.00 | 0.05 | 0.00 | 60 | 1013.6 |
| 20260505100035 | 2 | 238 | 3.2 | 4.8 | 0.00 | 0.05 | 0.00 | 60 | 1013.4 |
| 20260505095534 | 2 | 236 | 3.2 | 8.0 | 0.00 | 0.05 | 0.00 | 62 | 1013.4 |
| 20260505095028 | 2 | 211 | 4.8 | 9.7 | 0.00 | 0.05 | 0.00 | 60 | 1013.4 |
| 20260505094525 | 2 | 257 | 4.8 | 9.7 | 0.00 | 0.05 | 0.00 | 65 | 1013.5 |
| 20260505094025 | 2 | 236 | 3.2 | 8.0 | 0.00 | 0.05 | 0.00 | 62 | 1013.5 |
| 20260505093523 | 1 | 183 | 3.2 | 6.4 | 0.00 | 0.05 | 0.00 | 63 | 1013.5 |
| 20260505093023 | 1 | 220 | 3.2 | 8.0 | 0.00 | 0.05 | 0.00 | 65 | 1013.6 |
| 20260505092519 | 1 | 159 | 4.8 | 8.0 | 0.00 | 0.05 | 0.00 | 65 | 1013.5 |
| 20260505092019 | 1 | 179 | 3.2 | 6.4 | 0.00 | 0.05 | 0.00 | 65 | 1013.5 |
| 20260505091518 | 1 | 221 | 1.6 | 4.8 | 0.00 | 0.05 | 0.00 | 64 | 1013.5 |
| 20260505091020 | 2 | 146 | 0.0 | 0.0 | 0.00 | 0.05 | 0.00 | 64 | 1013.4 |
| 20260505090517 | 2 | 140 | 0.0 | 0.0 | 0.00 | 0.05 | 0.00 | 63 | 1013.5 |
| 20260505090017 | 2 | 140 | 0.0 | 0.0 | 0.00 | 0.05 | 0.00 | 62 | 1013.4 |
| 20260505085511 | 2 | 141 | 0.0 | 0.0 | 0.00 | 0.05 | 0.00 | 63 | 1013.4 |
| 20260505085239 | 2 | 144 | 0.0 | 0.0 | 0.00 | 0.05 | 0.00 | 61 | 1013.4 |
| 20260505084507 | 2 | 144 | 0.0 | 3.2 | 0.00 | 0.05 | 0.00 | 61 | 1013.5 |
| 20260505084010 | 2 | 144 | 3.2 | 6.4 | 0.00 | 0.05 | 0.00 | 62 | 1013.6 |
| 20260505084005 | 2 | 144 | 3.2 | 4.8 | 0.00 | 0.05 | 0.00 | 61 | 1013.4 |
| 20260505083001 | 2 | 141 | 1.6 | 6.4 | 0.00 | 0.05 | 0.00 | 63 | 1013.6 |
| 20260505082502 | 2 | 142 | 1.6 | 9.7 | 0.00 | 0.05 | 0.00 | 64 | 1013.5 |
| 20260505082000 | 2 | 153 | 1.6 | 9.7 | 0.00 | 0.05 | 0.00 | 65 | 1013.6 |
| 20260505081501 | 2 | 147 | 3.2 | 9.7 | 0.00 | 0.08 | 0.00 | 64 | 1013.4 |
| 20260505080959 | 2 | 148 | 4.8 | 9.7 | 0.00 | 0.08 | 0.00 | 63 | 1013.5 |
| 20260505080459 | 2 | 152 | 3.2 | 9.7 | 0.00 | 0.13 | 0.00 | 63 | 1013.6 |
| 20260505075953 | 2 | 150 | 1.6 | 8.0 | 0.00 | 0.13 | 0.00 | 64 | 1013.8 |
| 20260505075451 | 2 | 157 | 1.6 | 8.0 | 0.00 | 0.15 | 0.00 | 64 | 1013.9 |
| 20260505075221 | 2 | 159 | 3.2 | 8.0 | 0.00 | 0.15 | 0.00 | 64 | 1013.9 |
| 20260505074447 | 2 | 165 | 3.2 | 8.0 | 0.00 | 0.15 | 0.00 | 65 | 1014.0 |
| 20260505073947 | 2 | 191 | 3.2 | 8.0 | 0.00 | 0.18 | 0.00 | 64 | 1014.0 |
| 20260505073445 | 3 | 169 | 3.2 | 9.7 | 0.00 | 0.18 | 0.00 | 64 | 1013.9 |
| 20260505072944 | 3 | 161 | 4.8 | 11.3 | 0.00 | 0.18 | 0.00 | 63 | 1013.9 |
| 20260505072445 | 3 | 171 | 4.8 | 11.3 | 0.00 | 0.18 | 0.00 | 62 | 1013.9 |
| 20260505071945 | 3 | 203 | 4.8 | 11.3 | 0.00 | 0.18 | 0.00 | 62 | 1013.9 |
| 20260505071445 | 3 | 150 | 4.8 | 11.3 | 0.00 | 0.18 | 0.00 | 61 | 1014.0 |
| 20260505070945 | 3 | 157 | 4.8 | 9.7 | 0.00 | 0.18 | 0.00 | 61 | 1014.2 |
| 20260505070445 | 3 | 173 | 3.2 | 9.7 | 0.00 | 0.18 | 0.00 | 61 | 1014.2 |
| 20260505070211 | 3 | 155 | 4.8 | 14.5 | 0.00 | 0.18 | 0.00 | 60 | 1014.2 |
| 20260505065441 | 3 | 175 | 4.8 | 14.5 | 0.00 | 0.18 | 0.00 | 60 | 1014.2 |
| 20260505064938 | 3 | 173 | 4.8 | 9.7 | 0.00 | 0.18 | 0.00 | 59 | 1014.0 |
| 20260505064439 | 3 | 207 | 4.8 | 9.7 | 0.00 | 0.18 | 0.00 | 61 | 1014.0 |
| 20260505063939 | 3 | 243 | 3.2 | 6.4 | 0.00 | 0.18 | 0.00 | 61 | 1014.2 |
| 20260505063439 | 3 | 171 | 3.2 | 8.0 | 0.00 | 0.18 | 0.00 | 60 | 1014.2 |
| 20260505062936 | 3 | 233 | 3.2 | 8.0 | 0.00 | 0.18 | 0.00 | 60 | 1014.3 |
| 20260505062436 | 3 | 192 | 1.6 | 4.8 | 0.00 | 0.18 | 0.00 | 59 | 1014.2 |
| 20260505061936 | 3 | 210 | 3.2 | 9.7 | 0.00 | 0.18 | 0.00 | 59 | 1014.3 |
| 20260505061436 | 3 | 223 | 4.8 | 9.7 | 0.00 | 0.18 | 0.00 | 58 | 1014.2 |
| 20260505061212 | 3 | 171 | 6.4 | 9.7 | 0.00 | 0.18 | 0.00 | 58 | 1014.0 |
| 20260505060935 | 3 | 190 | 4.8 | 9.7 | 0.00 | 0.18 | 0.00 | 60 | 1014.2 |
| 20260505055937 | 3 | 130 | 6.4 | 11.3 | 0.00 | 0.18 | 0.18 | 58 | 1014.2 |
| 20260505055433 | 3 | 174 | 6.4 | 11.3 | 0.00 | 0.18 | 0.18 | 56 | 1014.2 |
| 20260505054932 | 3 | 161 | 4.8 | 11.3 | 0.00 | 0.18 | 0.18 | 58 | 1014.3 |
| 20260505054703 | 3 | 159 | 3.2 | 8.0 | 0.00 | 0.18 | 0.18 | 58 | 1014.3 |
| 20260505054203 | 3 | 161 | 3.2 | 8.0 | 0.00 | 0.18 | 0.18 | 58 | 1014.2 |
| 20260505053432 | 3 | 161 | 4.8 | 8.0 | 0.00 | 0.18 | 0.18 | 58 | 1014.3 |
| 20260505052931 | 3 | 166 | 6.4 | 9.7 | 0.00 | 0.18 | 0.18 | 57 | 1014.3 |
| 20260505052423 | 3 | 163 | 4.8 | 11.3 | 0.00 | 0.18 | 0.18 | 57 | 1014.4 |
| 20260505052155 | 3 | 156 | 3.2 | 11.3 | 0.00 | 0.18 | 0.18 | 56 | 1014.4 |
| 20260505051425 | 4 | 209 | 3.2 | 6.4 | 0.00 | 0.18 | 0.18 | 56 | 1014.4 |
| 20260505050925 | 5 | 161 | 3.2 | 6.4 | 0.00 | 0.18 | 0.18 | 53 | 1014.5 |
| 20260505050425 | 5 | 162 | 4.8 | 8.0 | 0.00 | 0.18 | 0.18 | 46 | 1014.5 |
| 20260505050155 | 5 | 199 | 4.8 | 8.0 | 0.00 | 0.18 | 0.18 | 46 | 1014.5 |
| 20260505041414 | 5 | 246 | 4.8 | 8.0 | 0.00 | 0.18 | 0.18 | 44 | 1014.9 |
| 20260505040913 | 5 | 250 | 4.8 | 8.0 | 0.00 | 0.18 | 0.18 | 43 | 1014.9 |
| 20260505040415 | 6 | 249 | 6.4 | 8.0 | 0.00 | 0.18 | 0.18 | 43 | 1014.8 |
| 20260505035913 | 6 | 248 | 3.2 | 8.0 | 0.00 | 0.18 | 0.18 | 42 | 1014.8 |
| 20260505035414 | 6 | 234 | 0.0 | 8.0 | 0.00 | 0.18 | 0.18 | 42 | 1014.7 |
| 20260505034915 | 6 | 172 | 0.0 | 4.8 | 0.00 | 0.18 | 0.18 | 41 | 1014.7 |
| 20260505034409 | 7 | 202 | 1.6 | 6.4 | 0.00 | 0.18 | 0.18 | 41 | 1014.7 |
| 20260505033903 | 7 | 250 | 4.8 | 8.0 | 0.00 | 0.18 | 0.18 | 40 | 1014.7 |
| 20260505033403 | 7 | 202 | 6.4 | 11.3 | 0.00 | 0.18 | 0.18 | 36 | 1014.8 |
| 20260505033357 | 7 | 223 | 6.4 | 9.7 | 0.00 | 0.18 | 0.18 | 37 | 1014.8 |
| 20260505032357 | 7 | 212 | 6.4 | 11.3 | 0.00 | 0.18 | 0.18 | 39 | 1014.8 |
| 20260505031859 | 7 | 215 | 4.8 | 8.0 | 0.00 | 0.18 | 0.18 | 38 | 1014.7 |
| 20260505031358 | 7 | 209 | 4.8 | 8.0 | 0.00 | 0.18 | 0.18 | 39 | 1014.5 |
| 20260505030858 | 7 | 246 | 4.8 | 9.7 | 0.00 | 0.18 | 0.18 | 40 | 1014.4 |
| 20260505030354 | 7 | 249 | 6.4 | 12.9 | 0.00 | 0.18 | 0.18 | 39 | 1014.4 |
| 20260505025855 | 8 | 260 | 6.4 | 14.5 | 0.00 | 0.18 | 0.18 | 35 | 1014.3 |
| 20260505025625 | 8 | 246 | 8.0 | 14.5 | 0.00 | 0.18 | 0.18 | 35 | 1014.3 |
| 20260505024853 | 8 | 209 | 8.0 | 12.9 | 0.00 | 0.18 | 0.18 | 35 | 1014.4 |
| 20260505024354 | 8 | 214 | 6.4 | 11.3 | 0.00 | 0.18 | 0.18 | 35 | 1014.2 |
| 20260505023854 | 8 | 213 | 8.0 | 11.3 | 0.00 | 0.18 | 0.18 | 35 | 1014.2 |
| 20260505023354 | 8 | 195 | 8.0 | 14.5 | 0.00 | 0.18 | 0.18 | 34 | 1014.0 |
| 20260505023349 | 8 | 215 | 8.0 | 14.5 | 0.00 | 0.18 | 0.18 | 35 | 1014.0 |
| 20260505022349 | 8 | 205 | 8.0 | 17.7 | 0.00 | 0.18 | 0.18 | 35 | 1013.9 |
| 20260505021850 | 9 | 174 | 9.7 | 17.7 | 0.00 | 0.18 | 0.18 | 33 | 1013.9 |
| 20260505021355 | 9 | 182 | 9.7 | 16.1 | 0.00 | 0.18 | 0.18 | 34 | 1014.0 |
| 20260505021351 | 9 | 188 | 9.7 | 16.1 | 0.00 | 0.18 | 0.18 | 34 | 1014.2 |
| 20260505020345 | 9 | 193 | 9.7 | 19.3 | 0.00 | 0.18 | 0.18 | 34 | 1014.0 |
| 20260505020117 | 9 | 184 | 9.7 | 19.3 | 0.00 | 0.18 | 0.18 | 34 | 1014.0 |
| 20260505015346 | 9 | 198 | 11.3 | 19.3 | 0.00 | 0.18 | 0.18 | 35 | 1014.0 |
| 20260505014846 | 9 | 169 | 12.9 | 19.3 | 0.00 | 0.18 | 0.18 | 34 | 1014.0 |
| 20260505014346 | 9 | 190 | 12.9 | 19.3 | 0.00 | 0.18 | 0.18 | 34 | 1013.9 |
| 20260505013847 | 10 | 193 | 12.9 | 22.5 | 0.00 | 0.18 | 0.18 | 35 | 1013.8 |
| 20260505013612 | 10 | 197 | 12.9 | 22.5 | 0.00 | 0.18 | 0.18 | 34 | 1013.8 |
| 20260505013114 | 10 | 183 | 12.9 | 27.4 | 0.00 | 0.18 | 0.18 | 35 | 1013.8 |
| 20260505012341 | 10 | 178 | 14.5 | 27.4 | 0.00 | 0.18 | 0.18 | 35 | 1013.6 |
| 20260505011842 | 10 | 202 | 12.9 | 29.0 | 0.00 | 0.18 | 0.18 | 35 | 1013.6 |
| 20260505011341 | 10 | 205 | 14.5 | 33.8 | 0.00 | 0.18 | 0.18 | 35 | 1013.4 |
| 20260505010842 | 10 | 193 | 16.1 | 33.8 | 0.00 | 0.18 | 0.18 | 34 | 1013.5 |
| 20260505010342 | 10 | 168 | 16.1 | 29.0 | 0.00 | 0.18 | 0.18 | 36 | 1013.4 |
| 20260505005842 | 10 | 207 | 17.7 | 29.0 | 0.00 | 0.18 | 0.18 | 36 | 1013.4 |
| 20260505005342 | 10 | 194 | 19.3 | 38.6 | 0.00 | 0.18 | 0.18 | 35 | 1013.6 |
| 20260505004837 | 10 | 202 | 17.7 | 38.6 | 0.00 | 0.18 | 0.18 | 36 | 1013.6 |
| 20260505004337 | 11 | 208 | 17.7 | 30.6 | 0.00 | 0.18 | 0.18 | 36 | 1013.6 |
| 20260505003837 | 11 | 202 | 17.7 | 30.6 | 0.00 | 0.18 | 0.18 | 36 | 1013.5 |
| 20260505003338 | 11 | 189 | 17.7 | 43.5 | 0.00 | 0.18 | 0.18 | 37 | 1013.5 |
| 20260505002835 | 11 | 188 | 19.3 | 43.5 | 0.00 | 0.18 | 0.18 | 37 | 1013.6 |
| 20260505002337 | 11 | 215 | 19.3 | 32.2 | 0.00 | 0.18 | 0.18 | 37 | 1013.6 |
| 20260505001836 | 11 | 203 | 17.7 | 25.7 | 0.00 | 0.18 | 0.18 | 37 | 1013.6 |
| 20260505001332 | 11 | 190 | 17.7 | 32.2 | 0.00 | 0.18 | 0.18 | 38 | 1013.8 |
| 20260505000833 | 11 | 207 | 17.7 | 32.2 | 0.00 | 0.18 | 0.18 | 37 | 1013.8 |
| 20260505000331 | 11 | 202 | 17.7 | 32.2 | 0.00 | 0.18 | 0.18 | 37 | 1013.9 |
| 20260504235831 | 11 | 188 | 16.1 | 32.2 | 0.00 | 0.18 | 0.18 | 38 | 1013.6 |
| 20260504235332 | 11 | 174 | 17.7 | 29.0 | 0.00 | 0.18 | 0.18 | 37 | 1013.9 |
| 20260504234833 | 11 | 200 | 17.7 | 32.2 | 0.00 | 0.18 | 0.18 | 37 | 1013.6 |
| 20260504234332 | 11 | 160 | 16.1 | 32.2 | 0.00 | 0.18 | 0.18 | 37 | 1013.6 |
| 20260504234056 | 11 | 219 | 17.7 | 30.6 | 0.00 | 0.18 | 0.18 | 37 | 1013.9 |
| 20260504233325 | 11 | 198 | 19.3 | 33.8 | 0.00 | 0.18 | 0.18 | 36 | 1013.8 |
| 20260504233053 | 12 | 171 | 19.3 | 33.8 | 0.00 | 0.18 | 0.18 | 36 | 1013.8 |
| 20260504232324 | 12 | 177 | 19.3 | 32.2 | 0.00 | 0.18 | 0.18 | 36 | 1013.5 |
| 20260504231822 | 12 | 169 | 17.7 | 32.2 | 0.00 | 0.18 | 0.18 | 37 | 1013.5 |
| 20260504231321 | 12 | 205 | 14.5 | 32.2 | 0.00 | 0.18 | 0.18 | 36 | 1013.4 |
| 20260504230815 | 13 | 176 | 16.1 | 29.0 | 0.00 | 0.18 | 0.18 | 36 | 1013.4 |
| 20260504230317 | 13 | 198 | 17.7 | 37.0 | 0.00 | 0.18 | 0.18 | 36 | 1013.5 |
| 20260504230048 | 12 | 183 | 16.1 | 37.0 | 0.00 | 0.18 | 0.18 | 37 | 1013.4 |
| 20260504225315 | 12 | 200 | 17.7 | 32.2 | 0.00 | 0.18 | 0.18 | 37 | 1013.5 |
| 20260504224815 | 12 | 190 | 17.7 | 32.2 | 0.00 | 0.18 | 0.18 | 38 | 1013.5 |
| 20260504224316 | 12 | 177 | 17.7 | 41.8 | 0.00 | 0.18 | 0.18 | 38 | 1013.5 |
| 20260504223815 | 12 | 192 | 19.3 | 41.8 | 0.00 | 0.18 | 0.18 | 37 | 1013.5 |
| 20260504223540 | 12 | 177 | 19.3 | 37.0 | 0.00 | 0.18 | 0.18 | 39 | 1013.5 |
| 20260504222807 | 12 | 178 | 19.3 | 37.0 | 0.00 | 0.18 | 0.18 | 38 | 1013.5 |
| 20260504222308 | 12 | 174 | 19.3 | 37.0 | 0.00 | 0.18 | 0.18 | 39 | 1013.6 |
| 20260504221809 | 12 | 200 | 19.3 | 37.0 | 0.00 | 0.18 | 0.18 | 39 | 1013.5 |
| 20260504221314 | 12 | 174 | 20.9 | 33.8 | 0.00 | 0.18 | 0.18 | 40 | 1013.6 |
| 20260504221309 | 12 | 168 | 19.3 | 32.2 | 0.00 | 0.18 | 0.18 | 39 | 1013.6 |
| 20260504220538 | 12 | 213 | 20.9 | 38.6 | 0.00 | 0.18 | 0.18 | 41 | 1013.6 |
| 20260504215804 | 12 | 191 | 19.3 | 38.6 | 0.00 | 0.18 | 0.18 | 42 | 1013.8 |
| 20260504215304 | 12 | 169 | 20.9 | 41.8 | 0.00 | 0.18 | 0.18 | 41 | 1013.9 |
| 20260504215034 | 12 | 207 | 22.5 | 41.8 | 0.00 | 0.18 | 0.18 | 41 | 1014.0 |
| 20260504214302 | 12 | 190 | 22.5 | 35.4 | 0.00 | 0.18 | 0.18 | 41 | 1014.0 |
| 20260504213802 | 12 | 209 | 22.5 | 37.0 | 0.00 | 0.18 | 0.18 | 42 | 1014.0 |
| 20260504213256 | 12 | 192 | 22.5 | 37.0 | 0.00 | 0.18 | 0.18 | 42 | 1014.0 |
| 20260504212757 | 12 | 198 | 22.5 | 38.6 | 0.00 | 0.18 | 0.18 | 41 | 1014.0 |
| 20260504212257 | 12 | 165 | 22.5 | 38.6 | 0.00 | 0.18 | 0.18 | 43 | 1014.0 |
| 20260504211756 | 12 | 216 | 22.5 | 38.6 | 0.00 | 0.18 | 0.18 | 44 | 1014.0 |
| 20260504211256 | 12 | 180 | 24.1 | 37.0 | 0.00 | 0.18 | 0.18 | 43 | 1014.4 |
| 20260504210756 | 12 | 183 | 24.1 | 37.0 | 0.00 | 0.18 | 0.18 | 42 | 1014.4 |
| 20260504210250 | 12 | 196 | 22.5 | 37.0 | 0.00 | 0.18 | 0.18 | 41 | 1014.4 |
| 20260504205751 | 12 | 204 | 22.5 | 43.5 | 0.00 | 0.18 | 0.18 | 41 | 1014.4 |
| 20260504205250 | 12 | 221 | 20.9 | 43.5 | 0.00 | 0.18 | 0.18 | 39 | 1014.4 |
| 20260504204750 | 12 | 181 | 20.9 | 37.0 | 0.00 | 0.18 | 0.18 | 42 | 1014.5 |
| 20260504204250 | 12 | 185 | 20.9 | 35.4 | 0.00 | 0.18 | 0.18 | 41 | 1014.7 |
| 20260504203750 | 13 | 205 | 19.3 | 35.4 | 0.00 | 0.18 | 0.18 | 41 | 1014.3 |
| 20260504203515 | 13 | 190 | 17.7 | 29.0 | 0.00 | 0.18 | 0.18 | 44 | 1014.7 |
| 20260504202744 | 12 | 214 | 19.3 | 33.8 | 0.00 | 0.18 | 0.18 | 42 | 1014.8 |
| 20260504202245 | 12 | 221 | 19.3 | 33.8 | 0.00 | 0.18 | 0.18 | 43 | 1014.8 |
| 20260504201744 | 12 | 204 | 19.3 | 29.0 | 0.00 | 0.18 | 0.18 | 43 | 1014.8 |
| 20260504201515 | 12 | 174 | 19.3 | 35.4 | 0.00 | 0.18 | 0.18 | 44 | 1014.7 |
| 20260504200744 | 12 | 193 | 20.9 | 35.4 | 0.00 | 0.18 | 0.18 | 46 | 1014.7 |
| 20260504200238 | 12 | 215 | 20.9 | 38.6 | 0.00 | 0.18 | 0.18 | 45 | 1014.8 |
| 20260504195739 | 11 | 181 | 22.5 | 38.6 | 0.00 | 0.18 | 0.18 | 46 | 1014.7 |
| 20260504195238 | 11 | 202 | 22.5 | 35.4 | 0.00 | 0.18 | 0.18 | 47 | 1014.8 |
| 20260504194738 | 11 | 198 | 22.5 | 35.4 | 0.00 | 0.18 | 0.18 | 46 | 1014.8 |
| 20260504194237 | 11 | 196 | 24.1 | 37.0 | 0.00 | 0.18 | 0.18 | 47 | 1014.9 |
| 20260504193738 | 11 | 198 | 22.5 | 37.0 | 0.00 | 0.18 | 0.18 | 47 | 1014.8 |
| 20260504193235 | 12 | 210 | 19.3 | 32.2 | 0.00 | 0.18 | 0.18 | 46 | 1014.9 |
| 20260504192735 | 12 | 192 | 17.7 | 30.6 | 0.00 | 0.18 | 0.18 | 44 | 1014.9 |
| 20260504192234 | 12 | 188 | 12.9 | 27.4 | 0.00 | 0.18 | 0.18 | 44 | 1015.1 |
| 20260504192008 | 12 | 196 | 9.7 | 25.7 | 0.00 | 0.18 | 0.18 | 45 | 1015.3 |
| 20260504191235 | 12 | 235 | 9.7 | 29.0 | 0.00 | 0.18 | 0.18 | 42 | 1015.3 |
| 20260504190736 | 11 | 242 | 8.0 | 29.0 | 0.00 | 0.18 | 0.18 | 47 | 1015.2 |
| 20260504190508 | 11 | 167 | 4.8 | 14.5 | 0.00 | 0.18 | 0.18 | 49 | 1015.3 |
| 20260504185734 | 11 | 226 | 6.4 | 14.5 | 0.00 | 0.18 | 0.18 | 52 | 1015.5 |
| 20260504185730 | 11 | 96 | 4.8 | 14.5 | 0.00 | 0.18 | 0.18 | 48 | 1015.5 |
| 20260504184730 | 11 | 147 | 8.0 | 14.5 | 0.00 | 0.18 | 0.18 | 51 | 1015.5 |
| 20260504184230 | 11 | 293 | 8.0 | 27.4 | 0.00 | 0.18 | 0.18 | 53 | 1015.7 |
| 20260504183729 | 11 | 136 | 8.0 | 27.4 | 0.00 | 0.18 | 0.18 | 50 | 1015.7 |
| 20260504183230 | 11 | 153 | 8.0 | 22.5 | 0.00 | 0.18 | 0.18 | 53 | 1015.9 |
| 20260504182725 | 11 | 180 | 8.0 | 22.5 | 0.00 | 0.18 | 0.18 | 54 | 1016.0 |
| 20260504182225 | 11 | 246 | 9.7 | 20.9 | 0.00 | 0.18 | 0.18 | 55 | 1016.1 |
| 20260504181724 | 11 | 217 | 9.7 | 20.9 | 0.00 | 0.18 | 0.18 | 58 | 1016.0 |
| 20260504181225 | 10 | 161 | 6.4 | 14.5 | 0.00 | 0.18 | 0.18 | 58 | 1016.1 |
| 20260504180957 | 10 | 241 | 4.8 | 12.9 | 0.00 | 0.18 | 0.18 | 59 | 1016.3 |
| 20260504180458 | 10 | 182 | 4.8 | 11.3 | 0.00 | 0.18 | 0.18 | 61 | 1016.3 |
| 20260504175726 | 10 | 233 | 3.2 | 11.3 | 0.00 | 0.18 | 0.18 | 61 | 1016.4 |
| 20260504175450 | 9 | 184 | 3.2 | 11.3 | 0.00 | 0.18 | 0.18 | 63 | 1016.5 |
| 20260504174717 | 9 | 244 | 3.2 | 11.3 | 0.00 | 0.18 | 0.18 | 64 | 1016.6 |
| 20260504174217 | 8 | 173 | 4.8 | 11.3 | 0.00 | 0.18 | 0.18 | 68 | 1016.6 |
| 20260504173717 | 8 | 258 | 4.8 | 16.1 | 0.00 | 0.18 | 0.18 | 72 | 1016.9 |
| 20260504173217 | 8 | 246 | 4.8 | 16.1 | 0.00 | 0.18 | 0.18 | 73 | 1017.0 |
| 20260504172718 | 8 | 217 | 4.8 | 14.5 | 0.00 | 0.18 | 0.18 | 75 | 1017.0 |
| 20260504172215 | 8 | 196 | 4.8 | 14.5 | 0.00 | 0.18 | 0.18 | 77 | 1017.2 |
| 20260504171715 | 8 | 184 | 4.8 | 9.7 | 0.00 | 0.18 | 0.18 | 77 | 1017.0 |
| 20260504171216 | 8 | 205 | 4.8 | 8.0 | 0.00 | 0.18 | 0.18 | 79 | 1017.3 |
| 20260504170715 | 7 | 193 | 4.8 | 9.7 | 0.00 | 0.18 | 0.18 | 75 | 1017.2 |
| 20260504170213 | 7 | 200 | 3.2 | 9.7 | 0.00 | 0.18 | 0.18 | 77 | 1017.3 |
| 20260504160213 | 6 | 331 | 6.4 | 12.9 | 0.00 | 0.18 | 0.18 | 83 | 1018.0 |
| 20260504160208 | 6 | 21 | 6.4 | 14.5 | 0.00 | 0.18 | 0.18 | 82 | 1017.8 |